Weather reports worldwide

Advertisment
Exeter Airport No. 2, United Kingdom (3844): temperature & dewpoint: 19.09.2020 01:00:00 - 25.09.2020 01:00:00 (BST)Exeter Airport No. 2, United Kingdom (3844): temperature -20cm & temperature -100cm: 19.09.2020 01:00:00 - 25.09.2020 01:00:00 (BST)Exeter Airport No. 2, United Kingdom (3844): reduced air pressure: 19.09.2020 01:00:00 - 25.09.2020 01:00:00 (BST)Exeter Airport No. 2, United Kingdom (3844): visibility: 19.09.2020 01:00:00 - 25.09.2020 01:00:00 (BST)Exeter Airport No. 2, United Kingdom (3844): sunshine duration: 19.09.2020 01:00:00 - 25.09.2020 01:00:00 (BST)Exeter Airport No. 2, United Kingdom (3844): precipitation: 19.09.2020 01:00:00 - 25.09.2020 01:00:00 (BST)
Date & Time tt [°C] td [°C] tt -20cm [°C] tt -100cm [°C] ppp [hPa] vv [km] sd [min] rr [mm]
25.09.2020 01:00:00 8,6 7,2 - - 997,2 35 - 0,2
25.09.2020 00:00:00 8,6 6,5 - - 995,6 30 0 0,0
24.09.2020 23:00:00 8,5 7,1 - - 993,3 30 0 0,0
24.09.2020 22:00:00 8,1 7,3 - - 991,8 24 0 0,0
24.09.2020 21:00:00 7,8 6,7 - - 991,2 28 0 0,0
24.09.2020 20:00:00 9,5 7,3 - - 990,6 30 0 0,2
24.09.2020 19:00:00 10,0 6,4 - - 991,1 18 0 0,0
24.09.2020 18:00:00 11,4 6,3 - - 991,5 30 6 0,0
24.09.2020 17:00:00 13,6 5,3 - - 992,2 45 48 0,0
24.09.2020 16:00:00 13,0 3,7 - - 992,7 45 24 0,0
24.09.2020 15:00:00 12,7 4,2 - - 993,2 50 42 0,0
24.09.2020 14:00:00 12,8 7,1 - - 993,9 35 36 0,0
24.09.2020 13:00:00 12,0 6,5 - - 994,7 45 0 0,0
24.09.2020 12:00:00 11,8 5,9 - - 995,1 35 0 0,2
24.09.2020 11:00:00 11,3 5,4 - - 995,4 22 30 0,0
24.09.2020 10:00:00 12,5 8,2 16,0 16,0 995,7 35 60 0,0
24.09.2020 09:00:00 10,0 6,1 - - 995,8 40 48 0,0
24.09.2020 08:00:00 9,2 5,6 - - 995,8 35 0 0,0
24.09.2020 07:00:00 8,7 7,0 - - 995,7 25 0 0,0
24.09.2020 06:00:00 9,2 7,3 - - 996,2 28 0 0,0
24.09.2020 05:00:00 10,0 8,2 - - 996,1 30 0 0,2
24.09.2020 04:00:00 10,6 9,4 - - 996,8 13 0 0,0
24.09.2020 03:00:00 10,4 9,0 - - 997,5 40 0 3,2
24.09.2020 02:00:00 11,0 8,6 - - 998,7 28 0 0,0
24.09.2020 01:00:00 8,3 6,3 - - 1000,1 50 - 0,0
24.09.2020 00:00:00 9,1 6,7 - - 1000,8 50 0 0,0
23.09.2020 23:00:00 7,8 5,7 - - 1001,0 50 0 0,0
23.09.2020 22:00:00 7,2 6,0 - - 1001,7 50 0 0,0
23.09.2020 21:00:00 8,7 6,1 - - 1001,7 55 0 0,0
23.09.2020 20:00:00 11,1 7,2 - - 1001,0 55 0 0,0
23.09.2020 19:00:00 13,0 7,5 - - 1000,6 55 0 0,0
23.09.2020 18:00:00 13,5 8,3 - - 1000,5 55 18 0,0
23.09.2020 17:00:00 14,9 7,9 - - 999,9 50 30 0,0
23.09.2020 16:00:00 14,6 9,4 - - 1000,1 45 0 0,0
23.09.2020 15:00:00 14,3 10,1 - - 1000,3 45 6 0,0
23.09.2020 14:00:00 15,1 11,9 - - 1000,5 50 0 0,0
23.09.2020 13:00:00 14,4 13,1 - - 1000,8 8 0 0,0
23.09.2020 12:00:00 15,2 13,2 - - 1000,7 40 0 0,4
23.09.2020 11:00:00 13,6 12,8 - - 1001,0 3,1 0 1,6
23.09.2020 10:00:00 14,6 13,0 16,4 16,0 1000,6 13 0 0,2
23.09.2020 09:00:00 14,6 13,1 - - 1000,9 15 0 0,6
23.09.2020 08:00:00 14,6 13,7 - - 1001,0 12 0 0,6
23.09.2020 07:00:00 14,6 13,5 - - 1001,3 14 0 0,0
23.09.2020 06:00:00 14,1 12,5 - - 1001,7 30 0 0,0
23.09.2020 05:00:00 14,6 12,7 - - 1002,2 35 0 0,0
23.09.2020 04:00:00 14,1 13,6 - - 1002,6 7 0 0,0
23.09.2020 03:00:00 14,9 14,1 - - 1002,9 12 0 0,2
23.09.2020 02:00:00 15,1 14,2 - - 1003,4 8 0 0,0
23.09.2020 01:00:00 15,2 14,3 - - 1004,0 9 - 0,0
23.09.2020 00:00:00 - - - - - - - -
22.09.2020 23:00:00 15,5 14,5 - - 1005,0 7 0 0,0
22.09.2020 22:00:00 15,8 14,2 - - 1005,2 11 0 0,0
22.09.2020 21:00:00 16,0 13,8 - - 1005,8 12 0 0,0
22.09.2020 20:00:00 16,4 14,0 - - 1006,1 13 0 0,0
22.09.2020 19:00:00 16,8 13,9 - - 1006,4 20 0 0,0
22.09.2020 18:00:00 17,6 14,1 - - 1006,7 19 0 0,0
22.09.2020 17:00:00 18,0 14,2 - - 1007,1 17 0 0,0
22.09.2020 16:00:00 18,4 15,1 - - 1007,6 25 0 0,0
22.09.2020 15:00:00 17,5 14,7 - - 1008,5 23 0 0,0
22.09.2020 14:00:00 17,5 14,6 - - 1009,1 23 0 0,0
22.09.2020 13:00:00 17,8 14,9 - - 1009,5 19 0 0,0
22.09.2020 12:00:00 17,0 14,7 - - 1010,0 17 0 0,0
22.09.2020 11:00:00 16,2 14,9 - - 1010,5 9 0 0,0
22.09.2020 10:00:00 12,3 12,2 16,7 16,2 1011,3 2,8 0 0,0
22.09.2020 09:00:00 10,8 10,6 - - 1011,5 0,1 48 0,0
22.09.2020 08:00:00 9,4 9,3 - - 1011,9 3,0 0 0,0
22.09.2020 07:00:00 9,7 9,6 - - 1012,1 3,4 0 0,0
22.09.2020 06:00:00 8,4 8,2 - - 1012,4 2,8 0 0,0
22.09.2020 05:00:00 8,8 8,4 - - 1012,5 5 0 0,0
22.09.2020 04:00:00 8,2 7,6 - - 1013,1 0,3 0 0,0
22.09.2020 03:00:00 9,0 8,4 - - 1013,7 6 0 0,0
22.09.2020 02:00:00 9,7 8,8 - - 1014,4 18 0 0,0
22.09.2020 01:00:00 10,4 8,9 - - 1014,9 25 - 0,0
22.09.2020 00:00:00 10,8 9,8 - - 1015,7 19 0 0,0
21.09.2020 23:00:00 11,2 10,0 - - 1015,8 22 0 0,0
21.09.2020 22:00:00 11,5 10,3 - - 1016,2 20 0 0,0
21.09.2020 21:00:00 13,8 10,5 - - 1016,1 22 0 0,0
21.09.2020 20:00:00 15,5 10,7 - - 1016,2 30 0 0,0
21.09.2020 19:00:00 18,1 10,7 - - 1016,0 24 42 0,0
21.09.2020 18:00:00 20,7 11,8 - - 1016,0 1,5 60 0,0
21.09.2020 17:00:00 22,5 12,9 - - 1016,1 1,0 60 0,0
21.09.2020 16:00:00 23,0 12,7 - - 1016,6 9 60 0,0
21.09.2020 15:00:00 23,0 12,1 - - 1016,9 3,6 60 0,0
21.09.2020 14:00:00 23,8 12,7 - - 1017,3 16 60 0,0
21.09.2020 13:00:00 22,5 12,3 - - 1017,5 25 60 0,0
21.09.2020 12:00:00 20,8 12,3 - - 1017,9 25 60 0,0
21.09.2020 11:00:00 18,9 13,4 - - 1018,1 22 60 0,0
21.09.2020 10:00:00 16,2 13,7 - - 1018,4 19 60 0,0
21.09.2020 09:00:00 13,7 13,0 - - 1018,3 16 60 0,0
21.09.2020 08:00:00 10,2 10,1 - - 1018,1 6 6 0,0
21.09.2020 07:00:00 9,9 9,6 - - 1018,0 1,4 0 0,0
21.09.2020 06:00:00 9,8 9,5 - - 1018,1 7 0 0,0
21.09.2020 05:00:00 11,0 10,7 - - 1018,2 8 0 0,0
21.09.2020 04:00:00 11,4 10,7 - - 1018,4 10 0 0,0
21.09.2020 03:00:00 11,3 10,3 - - 1018,7 13 0 0,0
21.09.2020 02:00:00 13,5 12,1 - - 1018,8 18 0 0,0
21.09.2020 01:00:00 12,8 11,7 - - 1018,6 15 - 0,0
21.09.2020 00:00:00 14,1 12,2 - - 1018,5 17 0 0,0
20.09.2020 23:00:00 13,1 12,0 - - 1018,6 13 0 0,0
20.09.2020 22:00:00 14,0 11,3 - - 1018,8 18 0 0,0
20.09.2020 21:00:00 15,3 12,2 - - 1018,6 20 0 0,0
20.09.2020 20:00:00 17,3 13,1 - - 1018,3 23 0 0,0
20.09.2020 19:00:00 18,7 13,4 - - 1017,8 26 6 0,0
20.09.2020 18:00:00 20,6 14,2 - - 1017,4 25 54 0,0
20.09.2020 17:00:00 21,7 13,3 - - 1017,2 30 54 0,0
20.09.2020 16:00:00 22,5 13,6 - - 1017,3 30 60 0,0
20.09.2020 15:00:00 22,1 13,5 - - 1017,7 28 60 0,0
20.09.2020 14:00:00 21,2 13,1 - - 1018,0 28 60 0,0
20.09.2020 13:00:00 20,1 13,1 - - 1018,1 25 60 0,0
20.09.2020 12:00:00 18,8 12,8 - - 1018,4 26 60 0,0
20.09.2020 11:00:00 17,0 11,9 - - 1018,7 24 54 0,0
20.09.2020 10:00:00 16,3 12,5 - - 1018,6 26 48 0,0
20.09.2020 09:00:00 14,8 11,8 - - 1018,2 22 36 0,0
20.09.2020 08:00:00 13,8 11,3 - - 1018,0 22 0 0,0
20.09.2020 07:00:00 13,2 11,0 - - 1017,6 22 0 0,0
20.09.2020 06:00:00 13,9 11,2 - - 1017,5 24 0 0,0
20.09.2020 05:00:00 14,2 11,4 - - 1017,4 25 0 0,0
20.09.2020 04:00:00 14,4 11,3 - - 1017,1 26 0 0,0
20.09.2020 03:00:00 15,0 11,5 - - 1017,2 28 0 0,0
20.09.2020 02:00:00 15,9 11,8 - - 1017,0 30 0 0,0
20.09.2020 01:00:00 16,8 11,8 - - 1016,7 30 - 0,0
20.09.2020 00:00:00 17,4 11,9 - - 1016,8 30 0 0,0
19.09.2020 23:00:00 17,9 12,0 - - 1016,4 30 0 0,0
19.09.2020 22:00:00 18,5 11,9 - - 1016,1 30 0 0,0
19.09.2020 21:00:00 19,1 10,7 - - 1015,7 35 0 0,0
19.09.2020 20:00:00 19,7 11,1 - - 1015,1 35 0 0,0
19.09.2020 19:00:00 20,5 11,3 - - 1014,7 35 0 0,0
19.09.2020 18:00:00 21,3 11,0 - - 1014,2 35 0 0,0
19.09.2020 17:00:00 22,0 11,4 - - 1014,0 35 0 0,0
19.09.2020 16:00:00 21,2 12,8 - - 1013,9 30 6 0,0
19.09.2020 15:00:00 21,1 12,4 - - 1014,5 9 60 0,0
19.09.2020 14:00:00 21,1 12,7 - - 1014,9 30 48 0,0
19.09.2020 13:00:00 18,9 12,3 - - 1015,3 30 24 0,0
19.09.2020 12:00:00 18,7 11,3 - - 1015,6 30 54 0,0
19.09.2020 11:00:00 17,2 11,2 - - 1016,1 30 60 0,0
19.09.2020 10:00:00 16,2 11,3 16,7 16,2 1016,3 29 30 0,0
19.09.2020 09:00:00 13,2 10,8 - - 1016,7 25 0 0,0
19.09.2020 08:00:00 12,2 10,2 - - 1016,5 25 0 0,0
19.09.2020 07:00:00 11,6 9,8 - - 1016,5 22 0 0,0
19.09.2020 06:00:00 11,9 9,8 - - 1016,2 27 0 0,0
19.09.2020 05:00:00 12,3 9,8 - - 1016,4 27 0 0,0
19.09.2020 04:00:00 12,6 9,5 - - 1016,7 28 0 0,0
19.09.2020 03:00:00 13,6 9,7 - - 1017,2 30 0 0,0
19.09.2020 02:00:00 14,4 9,5 - - 1017,4 30 0 0,0
19.09.2020 01:00:00 15,0 9,0 - - 1017,9 35 - 0,0

tt = temperature
td = dewpoint
tt -20cm = temperature -20cm
tt -100cm = temperature -100cm
ppp = reduced air pressure
vv = visibility
sd = sunshine duration
rr = precipitation

Next stations